Weather reports worldwide

Advertisment
Pershore, United Kingdom (3529): temperature & dewpoint: 06.11.2019 16:00:00 - 12.11.2019 16:00:00 (GMT)Pershore, United Kingdom (3529): temperature -20cm & temperature -100cm: 06.11.2019 16:00:00 - 12.11.2019 16:00:00 (GMT)Pershore, United Kingdom (3529): wind speed & gusts: 06.11.2019 16:00:00 - 12.11.2019 16:00:00 (GMT)Pershore, United Kingdom (3529): wind direction: 06.11.2019 16:00:00 - 12.11.2019 16:00:00 (GMT)Pershore, United Kingdom (3529): reduced air pressure: 06.11.2019 16:00:00 - 12.11.2019 16:00:00 (GMT)Pershore, United Kingdom (3529): visibility: 06.11.2019 16:00:00 - 12.11.2019 16:00:00 (GMT)Pershore, United Kingdom (3529): precipitation: 06.11.2019 16:00:00 - 12.11.2019 16:00:00 (GMT)
Date & Time tt [°C] td [°C] tt -20cm [°C] tt -100cm [°C] ff [km/h] ff [kn] fx [km/h] fx [kn] dd ppp [hPa] vv [km] rr [mm]
12.11.2019 16:00:00 7,3 6,0 - - 16 9 - - W 997,6 50 0,0
12.11.2019 15:00:00 7,2 6,0 - - 9 5 - - WSW 996,9 50 0,2
12.11.2019 14:00:00 6,7 5,2 - - 15 8 - - W 996,4 9 0,2
12.11.2019 13:00:00 6,9 3,8 - - 18 10 - - WSW 996,2 45 0,0
12.11.2019 12:00:00 6,5 3,4 - - 22 12 - - W 996,3 50 0,4
12.11.2019 11:00:00 6,1 3,3 - - 21 11 - - WSW 996,9 10 0,0
12.11.2019 10:00:00 7,1 1,8 - - 21 11 50 27 WSW 997,0 21 0,0
12.11.2019 09:00:00 5,3 1,9 8,2 11,2 22 12 - - SW 997,5 28 0,0
12.11.2019 08:00:00 3,8 1,6 - - 15 8 - - SW 998,1 35 0,0
12.11.2019 07:00:00 3,7 1,5 - - 15 8 - - SW 998,4 29 0,0
12.11.2019 06:00:00 3,5 1,4 - - 15 8 - - SW 999,1 45 0,0
12.11.2019 05:00:00 4,3 1,6 - - 16 9 - - WSW 999,2 35 0,0
12.11.2019 04:00:00 4,1 1,6 - - 13 7 - - WSW 999,6 45 0,0
12.11.2019 03:00:00 4,0 1,8 - - 16 9 - - SW 999,8 40 0,0
12.11.2019 02:00:00 4,3 1,4 - - 15 8 - - WSW 1000,5 45 0,0
12.11.2019 01:00:00 5,0 1,8 - - 18 10 - - WSW 1000,7 35 0,0
12.11.2019 00:00:00 4,6 1,7 - - 13 7 - - SW 1001,0 50 0,0
11.11.2019 23:00:00 5,1 1,8 - - 16 9 - - WSW 1001,0 40 0,0
11.11.2019 22:00:00 4,9 1,9 - - 15 8 - - WSW 1001,0 30 0,0
11.11.2019 21:00:00 4,6 1,9 - - 11 6 - - WSW 1001,3 30 0,0
11.11.2019 20:00:00 5,6 1,9 - - 18 10 - - W 1001,3 30 0,0
11.11.2019 19:00:00 5,5 2,1 - - 15 8 - - WSW 1001,5 25 0,0
11.11.2019 18:00:00 5,8 2,2 - - 13 7 - - WSW 1001,6 25 0,0
11.11.2019 17:00:00 6,6 2,1 - - 16 9 - - WSW 1001,6 21 0,0
11.11.2019 16:00:00 7,1 2,9 - - 15 8 - - W 1001,3 30 0,0
11.11.2019 15:00:00 8,1 3,4 - - 24 13 - - W 1001,1 27 0,0
11.11.2019 14:00:00 7,8 4,5 - - 22 12 48 26 W 1001,6 30 0,0
11.11.2019 13:00:00 8,8 3,6 - - 21 11 46 25 W 1001,6 22 0,0
11.11.2019 12:00:00 8,9 3,8 - - 18 10 - - W 1001,8 28 0,0
11.11.2019 11:00:00 8,4 4,5 - - 16 9 - - W 1002,1 25 0,0
11.11.2019 10:00:00 7,1 4,2 - - 11 6 - - W 1002,3 30 0,0
11.11.2019 09:00:00 5,8 3,8 8,5 11,5 11 6 - - WSW 1002,1 35 0,0
11.11.2019 08:00:00 5,2 3,9 - - 13 7 - - WSW 1001,7 28 0,0
11.11.2019 07:00:00 4,3 3,4 - - 11 6 - - WSW 1001,3 30 0,0
11.11.2019 06:00:00 4,4 3,3 - - 11 6 - - WSW 1000,9 45 0,0
11.11.2019 05:00:00 5,5 4,0 - - 13 7 48 26 W 1000,5 50 1,2
11.11.2019 04:00:00 7,5 6,8 - - 24 13 - - SSW 999,6 8 1,0
11.11.2019 03:00:00 7,0 6,4 - - 13 7 - - SSW 1001,3 12 0,8
11.11.2019 02:00:00 6,6 5,7 - - 11 6 - - S 1003,5 7 0,8
11.11.2019 01:00:00 7,0 5,6 - - 18 10 - - S 1005,0 20 0,4
11.11.2019 00:00:00 5,7 4,9 - - 11 6 - - SE 1007,0 11 1,0
10.11.2019 23:00:00 5,1 4,4 - - 9 5 - - S 1009,2 8 0,2
10.11.2019 22:00:00 4,1 3,3 - - 5 3 - - S 1011,2 14 0,0
10.11.2019 21:00:00 4,0 3,5 - - 5 3 - - SW 1012,0 16 0,0
10.11.2019 20:00:00 3,6 2,8 - - 2 1 - - S 1012,3 19 0,0
10.11.2019 19:00:00 4,2 3,0 - - 11 6 - - SE 1012,3 25 0,0
10.11.2019 18:00:00 3,0 2,6 - - 5 3 - - ESE 1013,2 15 0,0
10.11.2019 17:00:00 3,7 2,4 - - 4 2 - - SSE 1014,6 16 0,0
10.11.2019 16:00:00 6,6 2,8 - - 4 2 - - NNW 1015,2 30 0,0
10.11.2019 15:00:00 7,9 4,1 - - 5 3 - - NNW 1015,6 40 0,0
10.11.2019 14:00:00 9,1 4,8 - - 8 4 - - NW 1015,4 35 0,0
10.11.2019 13:00:00 8,1 3,7 - - 5 3 - - N 1015,7 40 0,0
10.11.2019 12:00:00 7,7 3,7 - - 8 4 - - NNE 1015,4 35 0,0
10.11.2019 11:00:00 7,0 4,0 - - 9 5 - - NNW 1016,0 40 0,0
10.11.2019 10:00:00 5,2 2,7 - - 8 4 - - NNW 1015,6 35 0,0
10.11.2019 09:00:00 4,4 2,4 8,7 11,7 8 4 - - N 1014,9 30 0,0
10.11.2019 08:00:00 2,8 1,0 - - 8 4 - - NNW 1013,8 45 0,0
10.11.2019 07:00:00 4,1 1,4 - - 11 6 - - N 1012,9 45 0,0
10.11.2019 06:00:00 4,5 1,8 - - 13 7 - - NNE 1011,3 40 0,0
10.11.2019 05:00:00 5,1 2,8 - - 15 8 - - N 1010,4 45 0,0
10.11.2019 04:00:00 5,3 3,8 - - 16 9 - - NNE 1009,1 40 0,0
10.11.2019 03:00:00 5,1 4,1 - - 16 9 - - NNE 1007,8 30 0,4
10.11.2019 02:00:00 4,9 3,9 - - 13 7 - - NNE 1006,7 19 1,2
10.11.2019 01:00:00 4,9 3,8 - - 15 8 - - NNE 1005,8 12 1,6
10.11.2019 00:00:00 4,6 3,8 - - 13 7 - - NNE 1005,0 7 2,0
09.11.2019 23:00:00 4,9 4,3 - - 11 6 - - NNE 1004,1 9 1,0
09.11.2019 22:00:00 4,9 4,4 - - 8 4 - - NNE 1003,5 8 0,0
09.11.2019 21:00:00 4,9 4,3 - - 9 5 - - NE 1002,8 11 0,2
09.11.2019 20:00:00 4,8 4,3 - - 9 5 - - NE 1002,8 17 0,0
09.11.2019 19:00:00 4,6 4,2 - - 8 4 - - NE 1002,7 15 0,0
09.11.2019 18:00:00 4,4 4,2 - - 5 3 - - NE 1002,5 9 0,6
09.11.2019 17:00:00 4,2 3,9 - - 8 4 - - NE 1002,3 4,2 0,8
09.11.2019 16:00:00 4,4 3,9 - - 13 7 - - E 1001,8 9 1,0
09.11.2019 15:00:00 4,5 3,9 - - 15 8 - - E 1002,2 9 1,2
09.11.2019 14:00:00 4,1 3,5 - - 15 8 - - E 1002,5 10 0,8
09.11.2019 13:00:00 4,0 3,3 - - 16 9 - - E 1003,4 10 1,4
09.11.2019 12:00:00 3,8 3,0 - - 11 6 - - E 1004,3 9 1,4
09.11.2019 11:00:00 3,9 2,9 - - 9 5 - - ESE 1005,2 17 1,0
09.11.2019 10:00:00 3,4 2,4 - - 13 7 - - ESE 1005,8 21 0,0
09.11.2019 09:00:00 2,1 1,5 9,4 11,9 16 9 - - ESE 1006,9 15 0,0
09.11.2019 08:00:00 -0,7 -0,7 - - 5 3 - - E 1008,1 11 0,0
09.11.2019 07:00:00 -2,2 -2,4 - - 4 2 - - E 1008,9 9 0,0
09.11.2019 06:00:00 -2,5 -2,7 - - 2 1 - - E 1009,7 9 0,0
09.11.2019 05:00:00 -2,0 -2,2 - - 2 1 - - ENE 1010,4 11 0,0
09.11.2019 04:00:00 -2,0 -2,4 - - 2 1 - - S 1011,2 12 0,0
09.11.2019 03:00:00 -1,0 -1,3 - - 4 2 - - S 1012,0 11 0,0
09.11.2019 02:00:00 -0,4 -0,6 - - 8 4 - - WSW 1012,7 5 0,0
09.11.2019 01:00:00 -0,6 -1,0 - - 2 1 - - SSW 1013,2 8 0,0
09.11.2019 00:00:00 0,3 -0,2 - - 2 1 - - W 1013,2 8 0,0
08.11.2019 23:00:00 0,7 0,2 - - 0 0 - - N 1013,2 14 0,0
08.11.2019 22:00:00 1,7 0,8 - - 5 3 - - WNW 1013,6 10 0,0
08.11.2019 21:00:00 3,3 1,5 - - 5 3 - - NNW 1013,2 20 0,0
08.11.2019 20:00:00 5,3 3,4 - - 5 3 - - NNW 1013,1 40 0,0
08.11.2019 19:00:00 6,2 3,3 - - 11 6 - - NNW 1013,1 35 0,0
08.11.2019 18:00:00 6,4 3,1 - - 13 7 - - NW 1012,5 35 0,0
08.11.2019 17:00:00 6,8 2,7 - - 15 8 - - NW 1012,0 40 0,0
08.11.2019 16:00:00 7,2 3,1 - - 16 9 - - NW 1011,3 35 0,0
08.11.2019 15:00:00 7,8 3,5 - - 13 7 - - NW 1010,5 30 0,0
08.11.2019 14:00:00 8,8 3,4 - - 15 8 - - NNW 1009,9 35 0,0
08.11.2019 13:00:00 9,6 4,8 - - 15 8 - - NNW 1009,6 35 0,0
08.11.2019 12:00:00 8,6 4,7 - - 16 9 - - NNW 1009,6 30 0,0
08.11.2019 11:00:00 8,1 4,6 - - 16 9 - - NNW 1009,2 30 0,0
08.11.2019 10:00:00 7,3 4,8 - - 18 10 - - NNW 1008,7 40 0,0
08.11.2019 09:00:00 6,1 5,3 9,7 12,0 13 7 - - NNW 1007,8 22 0,0
08.11.2019 08:00:00 5,3 4,5 - - 11 6 - - NNW 1006,8 30 0,2
08.11.2019 07:00:00 6,4 4,8 - - 18 10 - - N 1005,3 25 0,8
08.11.2019 06:00:00 6,8 6,0 - - 18 10 - - N 1004,1 12 0,8
08.11.2019 05:00:00 6,4 6,2 - - 9 5 - - NNW 1002,8 12 0,6
08.11.2019 04:00:00 5,5 5,4 - - 5 3 - - NNW 1001,7 6 0,0
08.11.2019 03:00:00 4,8 4,5 - - 2 1 - - W 1001,0 8 0,0
08.11.2019 02:00:00 4,5 4,2 - - 2 1 - - WSW 1000,4 10 0,0
08.11.2019 01:00:00 4,4 4,1 - - 4 2 - - SW 999,5 11 0,0
08.11.2019 00:00:00 3,8 3,6 - - 5 3 - - SSW 998,9 14 0,0
07.11.2019 23:00:00 3,4 3,1 - - 5 3 - - SW 998,3 15 0,0
07.11.2019 22:00:00 3,6 3,0 - - 8 4 - - SW 997,6 20 0,0
07.11.2019 21:00:00 3,5 3,1 - - 8 4 - - SW 997,0 24 0,0
07.11.2019 20:00:00 3,6 2,6 - - 4 2 - - WNW 996,3 16 0,0
07.11.2019 19:00:00 5,1 3,7 - - 9 5 - - SSW 995,5 35 0,0
07.11.2019 18:00:00 5,5 3,6 - - 9 5 - - SSW 994,7 50 0,0
07.11.2019 17:00:00 6,8 3,8 - - 9 5 - - SSW 994,0 40 0,0
07.11.2019 16:00:00 8,4 4,4 - - 9 5 - - SW 993,3 50 0,0
07.11.2019 15:00:00 9,9 4,7 - - 5 3 - - SW 992,7 35 0,0
07.11.2019 14:00:00 9,8 5,0 - - 13 7 - - SW 992,5 40 0,0
07.11.2019 13:00:00 9,1 4,4 - - 13 7 - - WSW 992,2 45 0,0
07.11.2019 12:00:00 9,7 4,8 - - 16 9 - - WSW 992,0 40 0,0
07.11.2019 11:00:00 8,7 5,2 - - 13 7 - - SW 991,9 40 0,0
07.11.2019 10:00:00 8,0 5,3 - - 13 7 - - WSW 991,6 40 0,0
07.11.2019 09:00:00 7,0 5,3 10,2 12,0 15 8 - - SW 991,3 40 0,0
07.11.2019 08:00:00 6,1 5,1 - - 8 4 - - WSW 991,2 50 0,0
07.11.2019 07:00:00 6,3 5,7 - - 8 4 - - W 990,6 50 0,0
07.11.2019 06:00:00 6,0 5,5 - - 2 1 - - SSW 990,2 14 0,0
07.11.2019 05:00:00 6,1 5,4 - - 5 3 - - SSE 990,5 6 0,2
07.11.2019 04:00:00 6,4 5,7 - - 5 3 - - E 990,7 50 0,0
07.11.2019 03:00:00 6,6 6,3 - - 5 3 - - ENE 991,2 18 0,0
07.11.2019 02:00:00 6,8 6,4 - - 2 1 - - E 992,0 8 0,6
07.11.2019 01:00:00 7,1 6,5 - - 8 4 - - SSE 992,9 14 1,4
07.11.2019 00:00:00 7,2 6,3 - - 13 7 - - SE 993,6 11 0,0
06.11.2019 23:00:00 7,1 6,0 - - 13 7 - - ESE 994,5 21 0,2
06.11.2019 22:00:00 7,3 6,3 - - 13 7 - - SE 995,7 19 0,2
06.11.2019 21:00:00 7,6 6,4 - - 16 9 - - SE 996,7 18 0,0
06.11.2019 20:00:00 7,6 6,4 - - 15 8 - - SE 997,4 30 0,0
06.11.2019 19:00:00 7,5 6,5 - - 13 7 - - SE 998,5 21 0,0
06.11.2019 18:00:00 7,6 6,8 - - 13 7 - - SE 999,5 17 0,4
06.11.2019 17:00:00 7,4 6,8 - - 8 4 - - ESE 1000,3 6 0,6
06.11.2019 16:00:00 7,5 6,6 - - 5 3 - - E 1001,2 10 0,0

tt = temperature
td = dewpoint
tt -20cm = temperature -20cm
tt -100cm = temperature -100cm
ff = wind speed
fx = gusts
dd = wind direction
ppp = reduced air pressure
vv = visibility
rr = precipitation

Next stations